CW6185 Weather Reports


time (UTC)temp
C
wind
direction
speed
KPH
gust
KPH
rain 1hr
cm
rain 24hr
cm
rain mn
cm
humidity
%
barometer
mb
20200227103515 5 128 6.4 20.9 0.00 0.00 0.00 81 1001.3
20200227102015 5 146 4.8 19.3 0.00 0.00 0.00 81 1001.8
20200227095015 5 139 12.9 19.3 0.00 0.00 0.00 82 1002.8
20200227092015 5 150 9.7 22.5 0.00 0.00 0.00 83 1003.5
20200227085014 5 126 12.9 19.3 0.00 0.00 0.00 83 1004.3
20200227083514 5 147 11.3 22.5 0.00 0.00 0.00 85 1004.8
20200227082014 4 154 9.7 19.3 0.00 0.00 0.00 87 1004.9
20200227080514 4 130 14.5 22.5 0.00 0.00 0.00 88 1005.4
20200227075014 3 157 4.8 20.9 0.00 0.00 0.00 89 1005.7
20200227073514 3 136 8.0 17.7 0.00 0.00 0.00 89 1005.8
20200227072014 3 128 9.7 17.7 0.00 0.00 0.00 89 1006.0
20200227070513 3 143 4.8 14.5 0.00 0.00 0.00 88 1006.1
20200227065013 3 132 9.7 19.3 0.00 0.00 0.00 88 1006.3
20200227060513 3 151 11.3 16.1 0.00 0.00 0.00 87 1006.6
20200227055013 3 136 6.4 16.1 0.00 0.00 0.00 86 1006.8
20200227053513 3 134 6.4 12.9 0.00 0.00 0.00 86 1007.0
20200227042012 3 191 9.7 9.7 0.00 0.00 0.00 84 1007.5
20200227035012 3 191 9.7 9.7 0.00 0.00 0.00 85 1007.5
20200227033512 3 191 9.7 9.7 0.00 0.00 0.00 85 1007.6
20200227023514 3 149 12.9 17.7 0.00 0.00 0.00 86 1008.0
20200227022014 3 183 12.9 32.2 0.00 0.00 0.00 86 1008.1
20200227015013 3 164 8.0 16.1 0.00 0.00 0.00 86 1008.5
20200227012013 3 164 12.9 22.5 0.00 0.00 0.00 86 1008.3
20200227010513 3 161 9.7 19.3 0.00 0.00 0.00 85 1008.3
20200227005013 3 169 12.9 17.7 0.00 0.00 0.00 85 1008.3
20200227003513 3 161 9.7 16.1 0.00 0.00 0.00 85 1008.2
20200227002013 3 130 8.0 17.7 0.00 0.00 0.00 86 1008.2
20200226235012 3 151 3.2 12.9 0.00 0.00 0.00 85 1008.2
20200226232012 3 163 11.3 16.1 0.00 0.00 0.00 85 1008.2
20200226230512 3 144 6.4 17.7 0.00 0.00 0.00 85 1008.2
20200226225012 3 170 9.7 19.3 0.00 0.03 0.03 85 1008.2
20200226222012 3 153 16.1 24.1 0.00 0.03 0.03 84 1007.7
20200226220512 3 149 9.7 16.1 0.00 0.03 0.03 84 1007.7
20200226215012 3 158 9.7 20.9 0.00 0.03 0.03 83 1007.8
20200226213511 3 156 8.0 14.5 0.00 0.03 0.03 82 1007.8
20200226202012 4 165 8.0 19.3 0.00 0.03 0.03 81 1007.1
20200226195010 4 174 8.0 17.7 0.00 0.03 0.03 79 1006.7
20200226192010 4 154 8.0 16.1 0.00 0.03 0.03 79 1006.5
20200226185014 4 132 9.7 14.5 0.00 0.03 0.03 80 1006.2
20200226183514 4 130 4.8 12.9 0.00 0.03 0.03 81 1005.9
20200226182014 4 163 8.0 11.3 0.00 0.03 0.03 80 1005.7
20200226180514 4 177 1.6 8.0 0.00 0.03 0.03 80 1005.4
20200226175014 4 177 4.8 9.7 0.00 0.03 0.03 80 1005.2